sat.trackr.live / text

‹ back to catalog

STARLINK-36186

NORAD 67165 · 2025-303C

PAYLOAD ACTIVE UNKNOWN

§ Identity

Operator
Country
US
Launch date
2025-12-17
Launch site
AFETR
Launch vehicle
Mass (kg)
RCS (m²)

Purposes: comms

External: N2YO · Heavens-Above · Gunter

§ Orbital elements

Epoch: 2026-09-19T18:54:22.984128Z

Period
94.27 min
Inclination
42.9986°
Eccentricity
0.0001634
Mean motion
15.27587773 rev/d
Perigee alt
481.9 km
Apogee alt
484.1 km
Semi-major
6,861.2 km
B*
4.2347e-4
RAAN
294.2332°
Arg perigee
277.4502°
Mean anomaly
82.6164°
Rev number
4,242

§ Raw data

STARLINK-361861 67165U 25303C   26262.78776602  .00011412  00000+0  42347-3 0  99902 67165  42.9986 294.2332 0001634 277.4502  82.6164 15.27587773 42422

JSON: /api/v1/satellites/67165 · /tle

For live sub-satellite position, see the globe view (requires WebGL).

§ Visibility from observer

Set your observer location to see the next 7 days of passes ≥ 10°. The values pass through the URL so the page stays shareable.

No JS? Fill the form by hand. The geolocation button needs JavaScript.